Content
SEND FEEDBACK

Daily
Averages
Monthly
Summary
United States of America

MONETT, MISSOURI


Home > North America > United States > Missouri
Elevation: 1310 feet     Latitude: 36 55N     Longitude: 093 55W

WEATHER
 
SELECT A DAY
Number of Records: 130,135;   Date Range: 2/5/09 - 10/19/14
 
SHARE

PRINT THIS DATA

[ ← Previous Day ]
WEATHER ALMANAC - FEBRUARY 17, 2014
[ Next Day → ]
[ °C ]   °F
Weather ElementAverageHighLow
Temperature47.1 °F55.4 °F (1:55 pm)39.2 °F (10:35 pm)
Dewpoint30.9 °F44.6 °F (9:15 am)26.6 °F (2:15 pm)
Humidity55.4 %76 % (5:35 am)33 % (2:15 pm)
Barometer29.97 in30.11 in (9:35 pm)29.79 in (3:55 am)
Wind Speed12.6 mph27.6 mph (11:15 am)
Wind Gust35.7 mph (9:35 am)
Weather ElementAverage
Visibility10 mi
Wind DirectionSSW (213.5 °)

Weather ElementTotal
Precipitation---
Heating Degree Days17.7 (Base 65)
Averaged from 71 records on February 17, 2014
WEATHER CONDITIONS BREAKOUT
WIND DIRECTION BREAKOUT
WEATHER BY HOUR - FEBRUARY 17, 2014
[ °C ]   °F
Local TimeTemperatureDewpointHumidityBarometerVisibilityWind DirectionWind SpeedGust SpeedPrecipitationEventsConditions
12:35 AM44.6 °F32.0 °F61 %29.87 in10.0 miSE (130°)17.3 mph25.3 mphOvercast
12:55 AM44.6 °F32.0 °F61 %29.86 in10.0 miSE (130°)16.1 mph21.9 mphMostly Cloudy
1:15 AM44.6 °F32.0 °F61 %29.86 in10.0 miSE (130°)15.0 mph23.0 mphMostly Cloudy
1:35 AM44.6 °F32.0 °F61 %29.85 in10.0 miSE (140°)17.3 mph25.3 mphOvercast
1:55 AM44.6 °F32.0 °F61 %29.84 in10.0 miSE (140°)15.0 mph20.7 mphOvercast
2:15 AM44.6 °F32.0 °F61 %29.83 in10.0 miSE (140°)15.0 mph23.0 mphOvercast
2:35 AM44.6 °F32.0 °F61 %29.81 in10.0 miSE (130°)17.3 mph25.3 mphOvercast
2:55 AM44.6 °F33.8 °F66 %29.81 in10.0 miSE (140°)13.8 mph25.3 mphOvercast
3:15 AM44.6 °F33.8 °F66 %29.80 in10.0 miSE (130°)20.7 mph25.3 mphOvercast
3:35 AM44.6 °F33.8 °F66 %29.81 in10.0 miSE (130°)13.8 mph21.9 mphOvercast
3:55 AM44.6 °F33.8 °F66 %29.79 in10.0 miSE (130°)17.3 mph23.0 mphOvercast
4:15 AM42.8 °F33.8 °F70 %29.79 in10.0 miSE (130°)16.1 mph21.9 mphOvercast
4:35 AM42.8 °F33.8 °F70 %29.80 in10.0 miSE (130°)10.4 mphOvercast
4:55 AM42.8 °F33.8 °F70 %29.81 in10.0 miSE (130°)11.5 mphOvercast
5:15 AM42.8 °F33.8 °F70 %29.79 in10.0 miSE (130°)13.8 mph18.4 mphOvercast
5:35 AM41.0 °F33.8 °F76 %29.79 in10.0 miSE (130°)12.7 mphScattered Clouds
5:55 AM41.0 °F32.0 °F70 %29.79 in10.0 miSE (140°)11.5 mphClear
6:15 AM41.0 °F33.8 °F76 %29.80 in10.0 miSE (140°)8.1 mphClear
6:35 AM41.0 °F33.8 °F76 %29.81 in10.0 miSE (140°)8.1 mphMostly Cloudy
6:55 AM41.0 °F33.8 °F76 %29.81 in10.0 miSE (140°)11.5 mphOvercast
7:15 AM41.0 °F33.8 °F76 %29.82 in10.0 miSE (140°)6.9 mphOvercast
7:35 AM42.8 °F33.8 °F70 %29.83 in10.0 miSE (140°)5.8 mphOvercast
7:55 AM42.8 °F35.6 °F76 %29.84 in10.0 miSouth (170°)6.9 mphOvercast
8:15 AM44.6 °F35.6 °F71 %29.85 in10.0 miSSE (160°)4.6 mphOvercast
8:35 AM46.4 °F37.4 °F71 %29.84 in10.0 miSouth (180°)8.1 mphOvercast
8:55 AM48.2 °F41.0 °F76 %29.86 in10.0 miWSW (250°)6.9 mphOvercast
9:15 AM53.6 °F44.6 °F72 %29.87 in10.0 miWest (280°)24.2 mph27.6 mphOvercast
9:35 AM51.8 °F39.2 °F62 %29.91 in10.0 miWNW (290°)24.2 mph35.7 mphMostly Cloudy
9:55 AM51.8 °F35.6 °F54 %29.92 in10.0 miNW (310°)16.1 mph32.2 mphScattered Clouds
10:15 AM51.8 °F35.6 °F54 %29.93 in10.0 miNW (310°)20.7 mph27.6 mphClear
10:35 AM51.8 °F35.6 °F54 %29.95 in10.0 miWNW (290°)24.2 mph32.2 mphClear
10:55 AM51.8 °F35.6 °F54 %29.98 in10.0 miWNW (300°)24.2 mph33.4 mphClear
11:15 AM50.0 °F35.6 °F58 %30.01 in10.0 miNW (310°)27.6 mph35.7 mphClear
11:35 AM50.0 °F35.6 °F58 %30.02 in10.0 miNW (310°)21.9 mph35.7 mphClear
11:55 AM51.8 °F33.8 °F50 %30.03 in10.0 miNW (320°)26.5 mph31.1 mphClear
12:15 PM51.8 °F32.0 °F47 %30.03 in10.0 miNW (320°)25.3 mph29.9 mphClear
12:35 PM51.8 °F30.2 °F44 %30.03 in10.0 miNNW (340°)18.4 mph27.6 mphClear
12:55 PM51.8 °F30.2 °F44 %30.04 in10.0 miNNW (330°)23.0 mph28.8 mphClear
1:15 PM53.6 °F28.4 °F38 %30.03 in10.0 miNNW (330°)18.4 mph29.9 mphClear
1:35 PM53.6 °F28.4 °F38 %30.04 in10.0 miNW (320°)21.9 mph28.8 mphClear
1:55 PM55.4 °F28.4 °F36 %30.03 in10.0 miNNW (330°)11.5 mphClear
2:15 PM55.4 °F26.6 °F33 %30.03 in10.0 miNW (320°)17.3 mph23.0 mphClear
2:35 PM55.4 °F26.6 °F33 %30.03 in10.0 miNW (320°)16.1 mph20.7 mphClear
2:55 PM55.4 °F26.6 °F33 %30.03 in10.0 miNW (310°)15.0 mph21.9 mphClear
3:15 PM55.4 °F26.6 °F33 %30.04 in10.0 miNW (310°)12.7 mph21.9 mphClear
3:35 PM55.4 °F28.4 °F36 %30.03 in10.0 miNNW (330°)13.8 mph20.7 mphClear
3:55 PM55.4 °F26.6 °F33 %30.03 in10.0 miWNW (300°)15.0 mph20.7 mphClear
4:15 PM55.4 °F28.4 °F36 %30.05 in10.0 miNW (310°)11.5 mph19.6 mphClear
4:35 PM55.4 °F28.4 °F36 %30.06 in10.0 miNW (320°)16.1 mphClear
4:55 PM55.4 °F28.4 °F36 %30.08 in10.0 miWNW (290°)12.7 mph17.3 mphClear
5:15 PM53.6 °F28.4 °F38 %30.08 in10.0 miWNW (290°)6.9 mphClear
5:35 PM51.8 °F28.4 °F41 %30.08 in10.0 miWNW (300°)5.8 mphClear
5:55 PM50.0 °F26.6 °F40 %30.09 in10.0 miWest (270°)4.6 mphClear
6:15 PM50.0 °F26.6 °F40 %30.09 in10.0 miWest (280°)4.6 mphClear
6:35 PM46.4 °F26.6 °F46 %30.10 in10.0 miCalmClear
6:55 PM46.4 °F26.6 °F46 %30.10 in10.0 miSSW (200°)3.5 mphClear
7:15 PM44.6 °F26.6 °F49 %30.09 in10.0 miSSE (160°)4.6 mphClear
7:35 PM44.6 °F26.6 °F49 %30.10 in10.0 miSouth (190°)5.8 mphClear
7:55 PM44.6 °F26.6 °F49 %30.09 in10.0 miSouth (180°)4.6 mphClear
8:15 PM42.8 °F26.6 °F53 %30.10 in10.0 miSSE (160°)4.6 mphClear
8:35 PM41.0 °F26.6 °F57 %30.10 in10.0 miSSE (160°)4.6 mphClear
8:55 PM41.0 °F26.6 °F57 %30.10 in10.0 miSouth (170°)4.6 mphClear
9:15 PM41.0 °F26.6 °F57 %30.10 in10.0 miSSE (160°)4.6 mphClear
9:35 PM41.0 °F26.6 °F57 %30.11 in10.0 miSouth (180°)3.5 mphClear
9:55 PM41.0 °F26.6 °F57 %30.11 in10.0 miSouth (170°)5.8 mphClear
10:15 PM41.0 °F26.6 °F57 %30.10 in10.0 miSouth (170°)5.8 mphClear
10:35 PM39.2 °F26.6 °F61 %30.10 in10.0 miSouth (180°)5.8 mphClear
10:55 PM41.0 °F26.6 °F57 %30.09 in10.0 miSouth (180°)6.9 mphClear
11:15 PM41.0 °F26.6 °F57 %30.09 in10.0 miSouth (180°)6.9 mphClear
11:35 PM42.8 °F26.6 °F53 %30.08 in10.0 miSouth (180°)9.2 mphClear
11:55 PM42.8 °F26.6 °F53 %30.08 in10.0 miSouth (180°)9.2 mphClear
Hourly data recorded from KHFJ, located miles away from Monett, Missouri







STORIES FROM OUR PARTNERS